<?xml version="1.0" encoding="UTF-8" standalone="no" ?>
<gpx xmlns="http://www.topografix.com/GPX/1/1" xmlns:xsi="http://www.w3.org/2001/XMLSchema-instance" xsi:schemaLocation="http://www.topografix.com/GPX/1/1 http://www.topografix.com/GPX/1/1/gpx.xsd" version="1.1" creator="VisuGPX - https://www.visugpx.com">
  <metadata>
    <name>Les gorges de la VERONCLE</name>
    <desc><![CDATA[Notre périple du 20/10/2010 ]]></desc>
  </metadata>
  <trk>
    <name><![CDATA[track]]></name>
    <trkseg>
      <trkpt lat="43.94937" lon="5.24208">
        <ele>677</ele>
        <time>2010-10-22T06:28:58Z</time>
      </trkpt>
      <trkpt lat="43.94938" lon="5.2421">
        <ele>565</ele>
        <time>2010-10-22T06:28:58Z</time>
      </trkpt>
      <trkpt lat="43.9493" lon="5.2422">
        <ele>540</ele>
        <time>2010-10-22T06:28:58Z</time>
      </trkpt>
      <trkpt lat="43.94929" lon="5.24222">
        <ele>507</ele>
        <time>2010-10-22T06:28:58Z</time>
      </trkpt>
      <trkpt lat="43.9493" lon="5.2422">
        <ele>503</ele>
        <time>2010-10-22T06:28:58Z</time>
      </trkpt>
      <trkpt lat="43.9492" lon="5.24193">
        <ele>499</ele>
        <time>2010-10-22T06:28:58Z</time>
      </trkpt>
      <trkpt lat="43.9492" lon="5.24196">
        <ele>500</ele>
        <time>2010-10-22T06:28:58Z</time>
      </trkpt>
      <trkpt lat="43.94916" lon="5.24196">
        <ele>500</ele>
        <time>2010-10-22T06:28:58Z</time>
      </trkpt>
      <trkpt lat="43.94906" lon="5.24184">
        <ele>499</ele>
        <time>2010-10-22T06:28:58Z</time>
      </trkpt>
      <trkpt lat="43.94889" lon="5.2415">
        <ele>500</ele>
        <time>2010-10-22T06:28:58Z</time>
      </trkpt>
      <trkpt lat="43.94873" lon="5.24037">
        <ele>500</ele>
        <time>2010-10-22T06:28:58Z</time>
      </trkpt>
      <trkpt lat="43.9486" lon="5.23975">
        <ele>500</ele>
        <time>2010-10-22T06:28:58Z</time>
      </trkpt>
      <trkpt lat="43.9485" lon="5.23953">
        <ele>501</ele>
        <time>2010-10-22T06:28:58Z</time>
      </trkpt>
      <trkpt lat="43.9475" lon="5.23803">
        <ele>500</ele>
        <time>2010-10-22T06:28:58Z</time>
      </trkpt>
      <trkpt lat="43.94689" lon="5.23729">
        <ele>500</ele>
        <time>2010-10-22T06:28:58Z</time>
      </trkpt>
      <trkpt lat="43.9465" lon="5.23626">
        <ele>499</ele>
        <time>2010-10-22T06:28:58Z</time>
      </trkpt>
      <trkpt lat="43.94586" lon="5.23552">
        <ele>499</ele>
        <time>2010-10-22T06:28:58Z</time>
      </trkpt>
      <trkpt lat="43.94563" lon="5.23534">
        <ele>500</ele>
        <time>2010-10-22T06:28:58Z</time>
      </trkpt>
      <trkpt lat="43.94539" lon="5.23529">
        <ele>502</ele>
        <time>2010-10-22T06:28:58Z</time>
      </trkpt>
      <trkpt lat="43.94536" lon="5.23525">
        <ele>500</ele>
        <time>2010-10-22T06:28:58Z</time>
      </trkpt>
      <trkpt lat="43.94503" lon="5.23446">
        <ele>500</ele>
        <time>2010-10-22T06:28:58Z</time>
      </trkpt>
      <trkpt lat="43.94484" lon="5.2336">
        <ele>502</ele>
        <time>2010-10-22T06:28:58Z</time>
      </trkpt>
      <trkpt lat="43.9441" lon="5.23235">
        <ele>505</ele>
        <time>2010-10-22T06:28:58Z</time>
      </trkpt>
      <trkpt lat="43.94378" lon="5.23198">
        <ele>507</ele>
        <time>2010-10-22T06:28:58Z</time>
      </trkpt>
      <trkpt lat="43.94358" lon="5.23181">
        <ele>505</ele>
        <time>2010-10-22T06:28:58Z</time>
      </trkpt>
      <trkpt lat="43.94309" lon="5.23161">
        <ele>505</ele>
        <time>2010-10-22T06:28:58Z</time>
      </trkpt>
      <trkpt lat="43.94282" lon="5.2314">
        <ele>506</ele>
        <time>2010-10-22T06:28:58Z</time>
      </trkpt>
      <trkpt lat="43.94234" lon="5.23048">
        <ele>511</ele>
        <time>2010-10-22T06:28:58Z</time>
      </trkpt>
      <trkpt lat="43.94209" lon="5.23025">
        <ele>512</ele>
        <time>2010-10-22T06:28:58Z</time>
      </trkpt>
      <trkpt lat="43.94132" lon="5.22979">
        <ele>511</ele>
        <time>2010-10-22T06:28:58Z</time>
      </trkpt>
      <trkpt lat="43.94077" lon="5.22934">
        <ele>509</ele>
        <time>2010-10-22T06:28:58Z</time>
      </trkpt>
      <trkpt lat="43.94064" lon="5.22914">
        <ele>506</ele>
        <time>2010-10-22T06:28:58Z</time>
      </trkpt>
      <trkpt lat="43.94055" lon="5.22886">
        <ele>506</ele>
        <time>2010-10-22T06:28:58Z</time>
      </trkpt>
      <trkpt lat="43.9404" lon="5.22805">
        <ele>504</ele>
        <time>2010-10-22T06:28:58Z</time>
      </trkpt>
      <trkpt lat="43.94015" lon="5.22737">
        <ele>500</ele>
        <time>2010-10-22T06:28:58Z</time>
      </trkpt>
      <trkpt lat="43.94001" lon="5.22656">
        <ele>494</ele>
        <time>2010-10-22T06:28:58Z</time>
      </trkpt>
      <trkpt lat="43.93961" lon="5.22642">
        <ele>491</ele>
        <time>2010-10-22T06:28:58Z</time>
      </trkpt>
      <trkpt lat="43.93939" lon="5.2267">
        <ele>492</ele>
        <time>2010-10-22T06:28:58Z</time>
      </trkpt>
      <trkpt lat="43.93931" lon="5.227">
        <ele>496</ele>
        <time>2010-10-22T06:28:58Z</time>
      </trkpt>
      <trkpt lat="43.93927" lon="5.2271">
        <ele>497</ele>
        <time>2010-10-22T06:28:58Z</time>
      </trkpt>
      <trkpt lat="43.93922" lon="5.22709">
        <ele>498</ele>
        <time>2010-10-22T06:28:58Z</time>
      </trkpt>
      <trkpt lat="43.93911" lon="5.22694">
        <ele>493</ele>
        <time>2010-10-22T06:28:58Z</time>
      </trkpt>
      <trkpt lat="43.93885" lon="5.22627">
        <ele>486</ele>
        <time>2010-10-22T06:28:58Z</time>
      </trkpt>
      <trkpt lat="43.93817" lon="5.22566">
        <ele>483</ele>
        <time>2010-10-22T06:28:58Z</time>
      </trkpt>
      <trkpt lat="43.93798" lon="5.22555">
        <ele>481</ele>
        <time>2010-10-22T06:28:58Z</time>
      </trkpt>
      <trkpt lat="43.93726" lon="5.22547">
        <ele>475</ele>
        <time>2010-10-22T06:28:58Z</time>
      </trkpt>
      <trkpt lat="43.93705" lon="5.22549">
        <ele>472</ele>
        <time>2010-10-22T06:28:58Z</time>
      </trkpt>
      <trkpt lat="43.93616" lon="5.22587">
        <ele>466</ele>
        <time>2010-10-22T06:28:58Z</time>
      </trkpt>
      <trkpt lat="43.93592" lon="5.2264">
        <ele>463</ele>
        <time>2010-10-22T06:28:58Z</time>
      </trkpt>
      <trkpt lat="43.93577" lon="5.22709">
        <ele>457</ele>
        <time>2010-10-22T06:28:58Z</time>
      </trkpt>
      <trkpt lat="43.93563" lon="5.22745">
        <ele>455</ele>
        <time>2010-10-22T06:28:58Z</time>
      </trkpt>
      <trkpt lat="43.93525" lon="5.22771">
        <ele>451</ele>
        <time>2010-10-22T06:28:58Z</time>
      </trkpt>
      <trkpt lat="43.93447" lon="5.22804">
        <ele>443</ele>
        <time>2010-10-22T06:28:58Z</time>
      </trkpt>
      <trkpt lat="43.93422" lon="5.22824">
        <ele>441</ele>
        <time>2010-10-22T06:28:58Z</time>
      </trkpt>
      <trkpt lat="43.9333" lon="5.22933">
        <ele>427</ele>
        <time>2010-10-22T06:28:58Z</time>
      </trkpt>
      <trkpt lat="43.93307" lon="5.22954">
        <ele>426</ele>
        <time>2010-10-22T06:28:58Z</time>
      </trkpt>
      <trkpt lat="43.93314" lon="5.23001">
        <ele>423</ele>
        <time>2010-10-22T06:28:58Z</time>
      </trkpt>
      <trkpt lat="43.93266" lon="5.23007">
        <ele>418</ele>
        <time>2010-10-22T06:28:58Z</time>
      </trkpt>
      <trkpt lat="43.93224" lon="5.23005">
        <ele>414</ele>
        <time>2010-10-22T06:28:58Z</time>
      </trkpt>
      <trkpt lat="43.93173" lon="5.23027">
        <ele>407</ele>
        <time>2010-10-22T06:28:58Z</time>
      </trkpt>
      <trkpt lat="43.9313" lon="5.23052">
        <ele>401</ele>
        <time>2010-10-22T06:28:58Z</time>
      </trkpt>
      <trkpt lat="43.93082" lon="5.23059">
        <ele>398</ele>
        <time>2010-10-22T06:28:58Z</time>
      </trkpt>
      <trkpt lat="43.93059" lon="5.23057">
        <ele>397</ele>
        <time>2010-10-22T06:28:58Z</time>
      </trkpt>
      <trkpt lat="43.92985" lon="5.2303">
        <ele>390</ele>
        <time>2010-10-22T06:28:58Z</time>
      </trkpt>
      <trkpt lat="43.92965" lon="5.23006">
        <ele>389</ele>
        <time>2010-10-22T06:28:58Z</time>
      </trkpt>
      <trkpt lat="43.92966" lon="5.22992">
        <ele>388</ele>
        <time>2010-10-22T06:28:58Z</time>
      </trkpt>
      <trkpt lat="43.92981" lon="5.22964">
        <ele>386</ele>
        <time>2010-10-22T06:28:58Z</time>
      </trkpt>
      <trkpt lat="43.92979" lon="5.22954">
        <ele>386</ele>
        <time>2010-10-22T06:28:58Z</time>
      </trkpt>
      <trkpt lat="43.92956" lon="5.22949">
        <ele>382</ele>
        <time>2010-10-22T06:28:58Z</time>
      </trkpt>
      <trkpt lat="43.92927" lon="5.2295">
        <ele>379</ele>
        <time>2010-10-22T06:28:58Z</time>
      </trkpt>
      <trkpt lat="43.92898" lon="5.22957">
        <ele>378</ele>
        <time>2010-10-22T06:28:58Z</time>
      </trkpt>
      <trkpt lat="43.9283" lon="5.22989">
        <ele>371</ele>
        <time>2010-10-22T06:28:58Z</time>
      </trkpt>
      <trkpt lat="43.92752" lon="5.2303">
        <ele>364</ele>
        <time>2010-10-22T06:28:58Z</time>
      </trkpt>
      <trkpt lat="43.92681" lon="5.23075">
        <ele>355</ele>
        <time>2010-10-22T06:28:58Z</time>
      </trkpt>
      <trkpt lat="43.92652" lon="5.23085">
        <ele>352</ele>
        <time>2010-10-22T06:28:58Z</time>
      </trkpt>
      <trkpt lat="43.92604" lon="5.2309">
        <ele>347</ele>
        <time>2010-10-22T06:28:58Z</time>
      </trkpt>
      <trkpt lat="43.92588" lon="5.23063">
        <ele>345</ele>
        <time>2010-10-22T06:28:58Z</time>
      </trkpt>
      <trkpt lat="43.92568" lon="5.22991">
        <ele>340</ele>
        <time>2010-10-22T06:28:58Z</time>
      </trkpt>
      <trkpt lat="43.92551" lon="5.22837">
        <ele>332</ele>
        <time>2010-10-22T06:28:58Z</time>
      </trkpt>
      <trkpt lat="43.92543" lon="5.22832">
        <ele>331</ele>
        <time>2010-10-22T06:28:58Z</time>
      </trkpt>
      <trkpt lat="43.92541" lon="5.22845">
        <ele>329</ele>
        <time>2010-10-22T06:28:58Z</time>
      </trkpt>
      <trkpt lat="43.92538" lon="5.2292">
        <ele>325</ele>
        <time>2010-10-22T06:28:58Z</time>
      </trkpt>
      <trkpt lat="43.9253" lon="5.22923">
        <ele>324</ele>
        <time>2010-10-22T06:28:58Z</time>
      </trkpt>
      <trkpt lat="43.92488" lon="5.22813">
        <ele>316</ele>
        <time>2010-10-22T06:28:58Z</time>
      </trkpt>
      <trkpt lat="43.92476" lon="5.22826">
        <ele>314</ele>
        <time>2010-10-22T06:28:58Z</time>
      </trkpt>
      <trkpt lat="43.92474" lon="5.22911">
        <ele>309</ele>
        <time>2010-10-22T06:28:58Z</time>
      </trkpt>
      <trkpt lat="43.92448" lon="5.23115">
        <ele>297</ele>
        <time>2010-10-22T06:28:58Z</time>
      </trkpt>
      <trkpt lat="43.92452" lon="5.23148">
        <ele>297</ele>
        <time>2010-10-22T06:28:58Z</time>
      </trkpt>
      <trkpt lat="43.92447" lon="5.2313">
        <ele>297</ele>
        <time>2010-10-22T06:28:58Z</time>
      </trkpt>
      <trkpt lat="43.92437" lon="5.2317">
        <ele>295</ele>
        <time>2010-10-22T06:28:58Z</time>
      </trkpt>
      <trkpt lat="43.92438" lon="5.23208">
        <ele>295</ele>
        <time>2010-10-22T06:28:58Z</time>
      </trkpt>
      <trkpt lat="43.92422" lon="5.23284">
        <ele>291</ele>
        <time>2010-10-22T06:28:58Z</time>
      </trkpt>
      <trkpt lat="43.92421" lon="5.23323">
        <ele>288</ele>
        <time>2010-10-22T06:28:58Z</time>
      </trkpt>
      <trkpt lat="43.92401" lon="5.23375">
        <ele>283</ele>
        <time>2010-10-22T06:28:58Z</time>
      </trkpt>
      <trkpt lat="43.92253" lon="5.23483">
        <ele>257</ele>
        <time>2010-10-22T06:28:58Z</time>
      </trkpt>
      <trkpt lat="43.92241" lon="5.235">
        <ele>254</ele>
        <time>2010-10-22T06:28:58Z</time>
      </trkpt>
      <trkpt lat="43.92237" lon="5.23536">
        <ele>252</ele>
        <time>2010-10-22T06:28:58Z</time>
      </trkpt>
      <trkpt lat="43.92218" lon="5.23561">
        <ele>249</ele>
        <time>2010-10-22T06:28:58Z</time>
      </trkpt>
      <trkpt lat="43.9221" lon="5.23584">
        <ele>247</ele>
        <time>2010-10-22T06:28:58Z</time>
      </trkpt>
      <trkpt lat="43.92193" lon="5.23597">
        <ele>244</ele>
        <time>2010-10-22T06:28:58Z</time>
      </trkpt>
      <trkpt lat="43.92158" lon="5.23669">
        <ele>240</ele>
        <time>2010-10-22T06:28:58Z</time>
      </trkpt>
      <trkpt lat="43.92157" lon="5.23674">
        <ele>236</ele>
        <time>2010-10-22T06:28:58Z</time>
      </trkpt>
      <trkpt lat="43.92156" lon="5.237">
        <ele>238</ele>
        <time>2010-10-22T06:28:58Z</time>
      </trkpt>
      <trkpt lat="43.92155" lon="5.23715">
        <ele>233</ele>
        <time>2010-10-22T06:28:58Z</time>
      </trkpt>
      <trkpt lat="43.9215" lon="5.23729">
        <ele>236</ele>
        <time>2010-10-22T06:28:58Z</time>
      </trkpt>
      <trkpt lat="43.92157" lon="5.23749">
        <ele>232</ele>
        <time>2010-10-22T06:28:58Z</time>
      </trkpt>
      <trkpt lat="43.92155" lon="5.2376">
        <ele>233</ele>
        <time>2010-10-22T06:28:58Z</time>
      </trkpt>
      <trkpt lat="43.92134" lon="5.23812">
        <ele>229</ele>
        <time>2010-10-22T06:28:58Z</time>
      </trkpt>
      <trkpt lat="43.92099" lon="5.23865">
        <ele>226</ele>
        <time>2010-10-22T06:28:58Z</time>
      </trkpt>
      <trkpt lat="43.92079" lon="5.23884">
        <ele>223</ele>
        <time>2010-10-22T06:28:58Z</time>
      </trkpt>
      <trkpt lat="43.9207" lon="5.23885">
        <ele>222</ele>
        <time>2010-10-22T06:28:58Z</time>
      </trkpt>
      <trkpt lat="43.92049" lon="5.239">
        <ele>219</ele>
        <time>2010-10-22T06:28:58Z</time>
      </trkpt>
      <trkpt lat="43.92034" lon="5.23918">
        <ele>216</ele>
        <time>2010-10-22T06:28:58Z</time>
      </trkpt>
      <trkpt lat="43.91992" lon="5.23952">
        <ele>211</ele>
        <time>2010-10-22T06:28:58Z</time>
      </trkpt>
      <trkpt lat="43.91972" lon="5.23995">
        <ele>207</ele>
        <time>2010-10-22T06:28:58Z</time>
      </trkpt>
      <trkpt lat="43.91962" lon="5.2403">
        <ele>207</ele>
        <time>2010-10-22T06:28:58Z</time>
      </trkpt>
      <trkpt lat="43.91935" lon="5.24036">
        <ele>203</ele>
        <time>2010-10-22T06:28:58Z</time>
      </trkpt>
      <trkpt lat="43.91913" lon="5.24031">
        <ele>200</ele>
        <time>2010-10-22T06:28:58Z</time>
      </trkpt>
      <trkpt lat="43.91896" lon="5.24018">
        <ele>199</ele>
        <time>2010-10-22T06:28:58Z</time>
      </trkpt>
      <trkpt lat="43.91892" lon="5.24009">
        <ele>200</ele>
        <time>2010-10-22T06:28:58Z</time>
      </trkpt>
      <trkpt lat="43.91879" lon="5.23965">
        <ele>200</ele>
        <time>2010-10-22T06:28:58Z</time>
      </trkpt>
      <trkpt lat="43.91888" lon="5.23959">
        <ele>201</ele>
        <time>2010-10-22T06:28:58Z</time>
      </trkpt>
      <trkpt lat="43.9188" lon="5.23963">
        <ele>200</ele>
        <time>2010-10-22T06:28:58Z</time>
      </trkpt>
      <trkpt lat="43.91871" lon="5.23942">
        <ele>200</ele>
        <time>2010-10-22T06:28:58Z</time>
      </trkpt>
      <trkpt lat="43.91855" lon="5.23899">
        <ele>199</ele>
        <time>2010-10-22T06:28:58Z</time>
      </trkpt>
      <trkpt lat="43.9184" lon="5.23832">
        <ele>199</ele>
        <time>2010-10-22T06:28:58Z</time>
      </trkpt>
      <trkpt lat="43.91827" lon="5.23807">
        <ele>197</ele>
        <time>2010-10-22T06:28:58Z</time>
      </trkpt>
      <trkpt lat="43.91826" lon="5.23799">
        <ele>201</ele>
        <time>2010-10-22T06:28:58Z</time>
      </trkpt>
      <trkpt lat="43.91823" lon="5.2378">
        <ele>196</ele>
        <time>2010-10-22T06:28:58Z</time>
      </trkpt>
      <trkpt lat="43.91769" lon="5.23666">
        <ele>199</ele>
        <time>2010-10-22T06:28:58Z</time>
      </trkpt>
      <trkpt lat="43.9173" lon="5.23558">
        <ele>200</ele>
        <time>2010-10-22T06:28:58Z</time>
      </trkpt>
      <trkpt lat="43.91714" lon="5.23478">
        <ele>198</ele>
        <time>2010-10-22T06:28:58Z</time>
      </trkpt>
      <trkpt lat="43.91707" lon="5.23409">
        <ele>199</ele>
        <time>2010-10-22T06:28:58Z</time>
      </trkpt>
      <trkpt lat="43.91702" lon="5.23384">
        <ele>202</ele>
        <time>2010-10-22T06:28:58Z</time>
      </trkpt>
      <trkpt lat="43.91659" lon="5.23284">
        <ele>208</ele>
        <time>2010-10-22T06:28:58Z</time>
      </trkpt>
      <trkpt lat="43.91644" lon="5.23221">
        <ele>208</ele>
        <time>2010-10-22T06:28:58Z</time>
      </trkpt>
      <trkpt lat="43.91646" lon="5.23146">
        <ele>208</ele>
        <time>2010-10-22T06:28:58Z</time>
      </trkpt>
      <trkpt lat="43.91652" lon="5.23113">
        <ele>209</ele>
        <time>2010-10-22T06:28:58Z</time>
      </trkpt>
      <trkpt lat="43.9166" lon="5.23098">
        <ele>209</ele>
        <time>2010-10-22T06:28:58Z</time>
      </trkpt>
      <trkpt lat="43.9166" lon="5.23003">
        <ele>209</ele>
        <time>2010-10-22T06:28:58Z</time>
      </trkpt>
      <trkpt lat="43.91665" lon="5.22971">
        <ele>209</ele>
        <time>2010-10-22T06:28:58Z</time>
      </trkpt>
      <trkpt lat="43.91661" lon="5.22924">
        <ele>210</ele>
        <time>2010-10-22T06:28:58Z</time>
      </trkpt>
      <trkpt lat="43.91655" lon="5.229">
        <ele>209</ele>
        <time>2010-10-22T06:28:58Z</time>
      </trkpt>
      <trkpt lat="43.91606" lon="5.229">
        <ele>203</ele>
        <time>2010-10-22T06:28:58Z</time>
      </trkpt>
      <trkpt lat="43.9158" lon="5.22858">
        <ele>201</ele>
        <time>2010-10-22T06:28:58Z</time>
      </trkpt>
      <trkpt lat="43.91584" lon="5.22842">
        <ele>202</ele>
        <time>2010-10-22T06:28:58Z</time>
      </trkpt>
      <trkpt lat="43.91584" lon="5.22842">
        <ele>206</ele>
        <time>2010-10-22T06:28:58Z</time>
      </trkpt>
      <trkpt lat="43.91584" lon="5.22842">
        <ele>202</ele>
        <time>2010-10-22T06:28:58Z</time>
      </trkpt>
      <trkpt lat="43.91582" lon="5.22841">
        <ele>202</ele>
        <time>2010-10-22T06:28:58Z</time>
      </trkpt>
      <trkpt lat="43.91587" lon="5.22838">
        <ele>202</ele>
        <time>2010-10-22T06:28:58Z</time>
      </trkpt>
      <trkpt lat="43.91581" lon="5.22842">
        <ele>202</ele>
        <time>2010-10-22T06:28:58Z</time>
      </trkpt>
      <trkpt lat="43.91587" lon="5.22842">
        <ele>202</ele>
        <time>2010-10-22T06:28:58Z</time>
      </trkpt>
      <trkpt lat="43.91617" lon="5.22812">
        <ele>204</ele>
        <time>2010-10-22T06:28:58Z</time>
      </trkpt>
      <trkpt lat="43.91642" lon="5.22796">
        <ele>208</ele>
        <time>2010-10-22T06:28:58Z</time>
      </trkpt>
      <trkpt lat="43.91679" lon="5.22781">
        <ele>215</ele>
        <time>2010-10-22T06:28:58Z</time>
      </trkpt>
      <trkpt lat="43.91695" lon="5.22762">
        <ele>219</ele>
        <time>2010-10-22T06:28:58Z</time>
      </trkpt>
      <trkpt lat="43.91694" lon="5.22762">
        <ele>215</ele>
        <time>2010-10-22T06:28:58Z</time>
      </trkpt>
      <trkpt lat="43.91694" lon="5.22762">
        <ele>218</ele>
        <time>2010-10-22T06:28:58Z</time>
      </trkpt>
      <trkpt lat="43.91758" lon="5.22739">
        <ele>227</ele>
        <time>2010-10-22T06:28:58Z</time>
      </trkpt>
      <trkpt lat="43.91774" lon="5.22747">
        <ele>226</ele>
        <time>2010-10-22T06:28:58Z</time>
      </trkpt>
      <trkpt lat="43.91765" lon="5.22732">
        <ele>228</ele>
        <time>2010-10-22T06:28:58Z</time>
      </trkpt>
      <trkpt lat="43.91779" lon="5.2272">
        <ele>230</ele>
        <time>2010-10-22T06:28:58Z</time>
      </trkpt>
      <trkpt lat="43.918" lon="5.22715">
        <ele>230</ele>
        <time>2010-10-22T06:28:58Z</time>
      </trkpt>
      <trkpt lat="43.91814" lon="5.22715">
        <ele>235</ele>
        <time>2010-10-22T06:28:58Z</time>
      </trkpt>
      <trkpt lat="43.91817" lon="5.22728">
        <ele>233</ele>
        <time>2010-10-22T06:28:58Z</time>
      </trkpt>
      <trkpt lat="43.91813" lon="5.22728">
        <ele>234</ele>
        <time>2010-10-22T06:28:58Z</time>
      </trkpt>
      <trkpt lat="43.91816" lon="5.22725">
        <ele>234</ele>
        <time>2010-10-22T06:28:58Z</time>
      </trkpt>
      <trkpt lat="43.91813" lon="5.22726">
        <ele>233</ele>
        <time>2010-10-22T06:28:58Z</time>
      </trkpt>
      <trkpt lat="43.91815" lon="5.22725">
        <ele>225</ele>
        <time>2010-10-22T06:28:58Z</time>
      </trkpt>
      <trkpt lat="43.91815" lon="5.22725">
        <ele>229</ele>
        <time>2010-10-22T06:28:58Z</time>
      </trkpt>
      <trkpt lat="43.91812" lon="5.22713">
        <ele>229</ele>
        <time>2010-10-22T06:28:58Z</time>
      </trkpt>
      <trkpt lat="43.91812" lon="5.22711">
        <ele>235</ele>
        <time>2010-10-22T06:28:58Z</time>
      </trkpt>
      <trkpt lat="43.91809" lon="5.22712">
        <ele>230</ele>
        <time>2010-10-22T06:28:58Z</time>
      </trkpt>
      <trkpt lat="43.91798" lon="5.22713">
        <ele>228</ele>
        <time>2010-10-22T06:28:58Z</time>
      </trkpt>
      <trkpt lat="43.91789" lon="5.22726">
        <ele>227</ele>
        <time>2010-10-22T06:28:58Z</time>
      </trkpt>
      <trkpt lat="43.91806" lon="5.22737">
        <ele>224</ele>
        <time>2010-10-22T06:28:58Z</time>
      </trkpt>
      <trkpt lat="43.91822" lon="5.22733">
        <ele>218</ele>
        <time>2010-10-22T06:28:58Z</time>
      </trkpt>
      <trkpt lat="43.91833" lon="5.22742">
        <ele>216</ele>
        <time>2010-10-22T06:28:58Z</time>
      </trkpt>
      <trkpt lat="43.91822" lon="5.2275">
        <ele>212</ele>
        <time>2010-10-22T06:28:58Z</time>
      </trkpt>
      <trkpt lat="43.91825" lon="5.2275">
        <ele>209</ele>
        <time>2010-10-22T06:28:58Z</time>
      </trkpt>
      <trkpt lat="43.9181" lon="5.22753">
        <ele>203</ele>
        <time>2010-10-22T06:28:58Z</time>
      </trkpt>
      <trkpt lat="43.91802" lon="5.22774">
        <ele>198</ele>
        <time>2010-10-22T06:28:58Z</time>
      </trkpt>
      <trkpt lat="43.9181" lon="5.22774">
        <ele>197</ele>
        <time>2010-10-22T06:28:58Z</time>
      </trkpt>
      <trkpt lat="43.91815" lon="5.22768">
        <ele>198</ele>
        <time>2010-10-22T06:28:58Z</time>
      </trkpt>
      <trkpt lat="43.91848" lon="5.22767">
        <ele>202</ele>
        <time>2010-10-22T06:28:58Z</time>
      </trkpt>
      <trkpt lat="43.91871" lon="5.22753">
        <ele>202</ele>
        <time>2010-10-22T06:28:58Z</time>
      </trkpt>
      <trkpt lat="43.91881" lon="5.22756">
        <ele>202</ele>
        <time>2010-10-22T06:28:58Z</time>
      </trkpt>
      <trkpt lat="43.91876" lon="5.22769">
        <ele>202</ele>
        <time>2010-10-22T06:28:58Z</time>
      </trkpt>
      <trkpt lat="43.91895" lon="5.2275">
        <ele>206</ele>
        <time>2010-10-22T06:28:58Z</time>
      </trkpt>
      <trkpt lat="43.91909" lon="5.22742">
        <ele>210</ele>
        <time>2010-10-22T06:28:58Z</time>
      </trkpt>
      <trkpt lat="43.91918" lon="5.22742">
        <ele>210</ele>
        <time>2010-10-22T06:28:58Z</time>
      </trkpt>
      <trkpt lat="43.91914" lon="5.22743">
        <ele>210</ele>
        <time>2010-10-22T06:28:58Z</time>
      </trkpt>
      <trkpt lat="43.91921" lon="5.22747">
        <ele>216</ele>
        <time>2010-10-22T06:28:58Z</time>
      </trkpt>
      <trkpt lat="43.91932" lon="5.22749">
        <ele>216</ele>
        <time>2010-10-22T06:28:58Z</time>
      </trkpt>
      <trkpt lat="43.9193" lon="5.22752">
        <ele>218</ele>
        <time>2010-10-22T06:28:58Z</time>
      </trkpt>
      <trkpt lat="43.91929" lon="5.22742">
        <ele>218</ele>
        <time>2010-10-22T06:28:58Z</time>
      </trkpt>
      <trkpt lat="43.91936" lon="5.22745">
        <ele>218</ele>
        <time>2010-10-22T06:28:58Z</time>
      </trkpt>
      <trkpt lat="43.91957" lon="5.22725">
        <ele>220</ele>
        <time>2010-10-22T06:28:58Z</time>
      </trkpt>
      <trkpt lat="43.91976" lon="5.2273">
        <ele>223</ele>
        <time>2010-10-22T06:28:58Z</time>
      </trkpt>
      <trkpt lat="43.91981" lon="5.2271">
        <ele>225</ele>
        <time>2010-10-22T06:28:58Z</time>
      </trkpt>
      <trkpt lat="43.91981" lon="5.22713">
        <ele>225</ele>
        <time>2010-10-22T06:28:58Z</time>
      </trkpt>
      <trkpt lat="43.91995" lon="5.22711">
        <ele>227</ele>
        <time>2010-10-22T06:28:58Z</time>
      </trkpt>
      <trkpt lat="43.92006" lon="5.22692">
        <ele>229</ele>
        <time>2010-10-22T06:28:58Z</time>
      </trkpt>
      <trkpt lat="43.92039" lon="5.22678">
        <ele>231</ele>
        <time>2010-10-22T06:28:58Z</time>
      </trkpt>
      <trkpt lat="43.92053" lon="5.22677">
        <ele>231</ele>
        <time>2010-10-22T06:28:58Z</time>
      </trkpt>
      <trkpt lat="43.92064" lon="5.2267">
        <ele>231</ele>
        <time>2010-10-22T06:28:58Z</time>
      </trkpt>
      <trkpt lat="43.92052" lon="5.22644">
        <ele>232</ele>
        <time>2010-10-22T06:28:58Z</time>
      </trkpt>
      <trkpt lat="43.9206" lon="5.22657">
        <ele>232</ele>
        <time>2010-10-22T06:28:58Z</time>
      </trkpt>
      <trkpt lat="43.92061" lon="5.2266">
        <ele>236</ele>
        <time>2010-10-22T06:28:58Z</time>
      </trkpt>
      <trkpt lat="43.92073" lon="5.22665">
        <ele>238</ele>
        <time>2010-10-22T06:28:58Z</time>
      </trkpt>
      <trkpt lat="43.92073" lon="5.22644">
        <ele>240</ele>
        <time>2010-10-22T06:28:58Z</time>
      </trkpt>
      <trkpt lat="43.92099" lon="5.22614">
        <ele>240</ele>
        <time>2010-10-22T06:28:58Z</time>
      </trkpt>
      <trkpt lat="43.92114" lon="5.22605">
        <ele>240</ele>
        <time>2010-10-22T06:28:58Z</time>
      </trkpt>
      <trkpt lat="43.92127" lon="5.22607">
        <ele>241</ele>
        <time>2010-10-22T06:28:58Z</time>
      </trkpt>
      <trkpt lat="43.92136" lon="5.22596">
        <ele>242</ele>
        <time>2010-10-22T06:28:58Z</time>
      </trkpt>
      <trkpt lat="43.92173" lon="5.22573">
        <ele>245</ele>
        <time>2010-10-22T06:28:58Z</time>
      </trkpt>
      <trkpt lat="43.92198" lon="5.22567">
        <ele>245</ele>
        <time>2010-10-22T06:28:58Z</time>
      </trkpt>
      <trkpt lat="43.92209" lon="5.22546">
        <ele>246</ele>
        <time>2010-10-22T06:28:58Z</time>
      </trkpt>
      <trkpt lat="43.92211" lon="5.2254">
        <ele>248</ele>
        <time>2010-10-22T06:28:58Z</time>
      </trkpt>
      <trkpt lat="43.9221" lon="5.22542">
        <ele>251</ele>
        <time>2010-10-22T06:28:58Z</time>
      </trkpt>
      <trkpt lat="43.92207" lon="5.22535">
        <ele>251</ele>
        <time>2010-10-22T06:28:58Z</time>
      </trkpt>
      <trkpt lat="43.92205" lon="5.22546">
        <ele>250</ele>
        <time>2010-10-22T06:28:58Z</time>
      </trkpt>
      <trkpt lat="43.92218" lon="5.22529">
        <ele>253</ele>
        <time>2010-10-22T06:28:58Z</time>
      </trkpt>
      <trkpt lat="43.92238" lon="5.22515">
        <ele>251</ele>
        <time>2010-10-22T06:28:58Z</time>
      </trkpt>
      <trkpt lat="43.92244" lon="5.22512">
        <ele>251</ele>
        <time>2010-10-22T06:28:58Z</time>
      </trkpt>
      <trkpt lat="43.92265" lon="5.22535">
        <ele>253</ele>
        <time>2010-10-22T06:28:58Z</time>
      </trkpt>
      <trkpt lat="43.92299" lon="5.22549">
        <ele>256</ele>
        <time>2010-10-22T06:28:58Z</time>
      </trkpt>
      <trkpt lat="43.92306" lon="5.22556">
        <ele>258</ele>
        <time>2010-10-22T06:28:58Z</time>
      </trkpt>
      <trkpt lat="43.92343" lon="5.2254">
        <ele>261</ele>
        <time>2010-10-22T06:28:58Z</time>
      </trkpt>
      <trkpt lat="43.92355" lon="5.22519">
        <ele>263</ele>
        <time>2010-10-22T06:28:58Z</time>
      </trkpt>
      <trkpt lat="43.92356" lon="5.22505">
        <ele>265</ele>
        <time>2010-10-22T06:28:58Z</time>
      </trkpt>
      <trkpt lat="43.92368" lon="5.22491">
        <ele>264</ele>
        <time>2010-10-22T06:28:58Z</time>
      </trkpt>
      <trkpt lat="43.92379" lon="5.22478">
        <ele>270</ele>
        <time>2010-10-22T06:28:58Z</time>
      </trkpt>
      <trkpt lat="43.92382" lon="5.22443">
        <ele>273</ele>
        <time>2010-10-22T06:28:58Z</time>
      </trkpt>
      <trkpt lat="43.92377" lon="5.22417">
        <ele>276</ele>
        <time>2010-10-22T06:28:58Z</time>
      </trkpt>
      <trkpt lat="43.92384" lon="5.22405">
        <ele>273</ele>
        <time>2010-10-22T06:28:58Z</time>
      </trkpt>
      <trkpt lat="43.92383" lon="5.22398">
        <ele>269</ele>
        <time>2010-10-22T06:28:58Z</time>
      </trkpt>
      <trkpt lat="43.9238" lon="5.22388">
        <ele>272</ele>
        <time>2010-10-22T06:28:58Z</time>
      </trkpt>
      <trkpt lat="43.92391" lon="5.22378">
        <ele>277</ele>
        <time>2010-10-22T06:28:58Z</time>
      </trkpt>
      <trkpt lat="43.92399" lon="5.22351">
        <ele>279</ele>
        <time>2010-10-22T06:28:58Z</time>
      </trkpt>
      <trkpt lat="43.92396" lon="5.22339">
        <ele>279</ele>
        <time>2010-10-22T06:28:58Z</time>
      </trkpt>
      <trkpt lat="43.92409" lon="5.22332">
        <ele>274</ele>
        <time>2010-10-22T06:28:58Z</time>
      </trkpt>
      <trkpt lat="43.92404" lon="5.22318">
        <ele>274</ele>
        <time>2010-10-22T06:28:58Z</time>
      </trkpt>
      <trkpt lat="43.92407" lon="5.22304">
        <ele>276</ele>
        <time>2010-10-22T06:28:58Z</time>
      </trkpt>
      <trkpt lat="43.92415" lon="5.22301">
        <ele>279</ele>
        <time>2010-10-22T06:28:58Z</time>
      </trkpt>
      <trkpt lat="43.92408" lon="5.22268">
        <ele>285</ele>
        <time>2010-10-22T06:28:58Z</time>
      </trkpt>
      <trkpt lat="43.92412" lon="5.22254">
        <ele>287</ele>
        <time>2010-10-22T06:28:58Z</time>
      </trkpt>
      <trkpt lat="43.92399" lon="5.22235">
        <ele>286</ele>
        <time>2010-10-22T06:28:58Z</time>
      </trkpt>
      <trkpt lat="43.92407" lon="5.22225">
        <ele>286</ele>
        <time>2010-10-22T06:28:58Z</time>
      </trkpt>
      <trkpt lat="43.92424" lon="5.22219">
        <ele>283</ele>
        <time>2010-10-22T06:28:58Z</time>
      </trkpt>
      <trkpt lat="43.92435" lon="5.22221">
        <ele>286</ele>
        <time>2010-10-22T06:28:58Z</time>
      </trkpt>
      <trkpt lat="43.92451" lon="5.22216">
        <ele>288</ele>
        <time>2010-10-22T06:28:58Z</time>
      </trkpt>
      <trkpt lat="43.92451" lon="5.222">
        <ele>291</ele>
        <time>2010-10-22T06:28:58Z</time>
      </trkpt>
      <trkpt lat="43.92466" lon="5.22208">
        <ele>294</ele>
        <time>2010-10-22T06:28:58Z</time>
      </trkpt>
      <trkpt lat="43.92487" lon="5.22192">
        <ele>300</ele>
        <time>2010-10-22T06:28:58Z</time>
      </trkpt>
      <trkpt lat="43.92508" lon="5.22191">
        <ele>307</ele>
        <time>2010-10-22T06:28:58Z</time>
      </trkpt>
      <trkpt lat="43.92526" lon="5.22182">
        <ele>311</ele>
        <time>2010-10-22T06:28:58Z</time>
      </trkpt>
      <trkpt lat="43.9254" lon="5.22174">
        <ele>309</ele>
        <time>2010-10-22T06:28:58Z</time>
      </trkpt>
      <trkpt lat="43.92549" lon="5.22177">
        <ele>307</ele>
        <time>2010-10-22T06:28:58Z</time>
      </trkpt>
      <trkpt lat="43.9256" lon="5.22192">
        <ele>302</ele>
        <time>2010-10-22T06:28:58Z</time>
      </trkpt>
      <trkpt lat="43.92577" lon="5.22196">
        <ele>303</ele>
        <time>2010-10-22T06:28:58Z</time>
      </trkpt>
      <trkpt lat="43.92601" lon="5.22208">
        <ele>309</ele>
        <time>2010-10-22T06:28:58Z</time>
      </trkpt>
      <trkpt lat="43.92613" lon="5.22212">
        <ele>304</ele>
        <time>2010-10-22T06:28:58Z</time>
      </trkpt>
      <trkpt lat="43.9264" lon="5.22191">
        <ele>307</ele>
        <time>2010-10-22T06:28:58Z</time>
      </trkpt>
      <trkpt lat="43.92649" lon="5.22183">
        <ele>314</ele>
        <time>2010-10-22T06:28:58Z</time>
      </trkpt>
      <trkpt lat="43.92666" lon="5.22159">
        <ele>317</ele>
        <time>2010-10-22T06:28:58Z</time>
      </trkpt>
      <trkpt lat="43.92671" lon="5.2214">
        <ele>317</ele>
        <time>2010-10-22T06:28:58Z</time>
      </trkpt>
      <trkpt lat="43.92688" lon="5.22126">
        <ele>317</ele>
        <time>2010-10-22T06:28:58Z</time>
      </trkpt>
      <trkpt lat="43.92697" lon="5.22132">
        <ele>315</ele>
        <time>2010-10-22T06:28:58Z</time>
      </trkpt>
      <trkpt lat="43.92701" lon="5.22121">
        <ele>316</ele>
        <time>2010-10-22T06:28:58Z</time>
      </trkpt>
      <trkpt lat="43.92724" lon="5.22125">
        <ele>320</ele>
        <time>2010-10-22T06:28:58Z</time>
      </trkpt>
      <trkpt lat="43.92739" lon="5.22123">
        <ele>320</ele>
        <time>2010-10-22T06:28:58Z</time>
      </trkpt>
      <trkpt lat="43.9274" lon="5.22142">
        <ele>318</ele>
        <time>2010-10-22T06:28:58Z</time>
      </trkpt>
      <trkpt lat="43.9274" lon="5.22128">
        <ele>318</ele>
        <time>2010-10-22T06:28:58Z</time>
      </trkpt>
      <trkpt lat="43.92734" lon="5.22156">
        <ele>301</ele>
        <time>2010-10-22T06:28:58Z</time>
      </trkpt>
      <trkpt lat="43.92728" lon="5.22159">
        <ele>298</ele>
        <time>2010-10-22T06:28:58Z</time>
      </trkpt>
      <trkpt lat="43.9272" lon="5.22153">
        <ele>294</ele>
        <time>2010-10-22T06:28:58Z</time>
      </trkpt>
      <trkpt lat="43.92722" lon="5.22151">
        <ele>297</ele>
        <time>2010-10-22T06:28:58Z</time>
      </trkpt>
      <trkpt lat="43.92732" lon="5.22156">
        <ele>299</ele>
        <time>2010-10-22T06:28:58Z</time>
      </trkpt>
      <trkpt lat="43.92739" lon="5.22172">
        <ele>296</ele>
        <time>2010-10-22T06:28:58Z</time>
      </trkpt>
      <trkpt lat="43.92727" lon="5.22184">
        <ele>297</ele>
        <time>2010-10-22T06:28:58Z</time>
      </trkpt>
      <trkpt lat="43.92726" lon="5.22209">
        <ele>297</ele>
        <time>2010-10-22T06:28:58Z</time>
      </trkpt>
      <trkpt lat="43.92734" lon="5.22232">
        <ele>298</ele>
        <time>2010-10-22T06:28:58Z</time>
      </trkpt>
      <trkpt lat="43.92747" lon="5.22235">
        <ele>298</ele>
        <time>2010-10-22T06:28:58Z</time>
      </trkpt>
      <trkpt lat="43.92788" lon="5.22258">
        <ele>301</ele>
        <time>2010-10-22T06:28:58Z</time>
      </trkpt>
      <trkpt lat="43.928" lon="5.22251">
        <ele>301</ele>
        <time>2010-10-22T06:28:58Z</time>
      </trkpt>
      <trkpt lat="43.92832" lon="5.2225">
        <ele>301</ele>
        <time>2010-10-22T06:28:58Z</time>
      </trkpt>
      <trkpt lat="43.92846" lon="5.22263">
        <ele>302</ele>
        <time>2010-10-22T06:28:58Z</time>
      </trkpt>
      <trkpt lat="43.92868" lon="5.22251">
        <ele>304</ele>
        <time>2010-10-22T06:28:58Z</time>
      </trkpt>
      <trkpt lat="43.92894" lon="5.22249">
        <ele>303</ele>
        <time>2010-10-22T06:28:58Z</time>
      </trkpt>
      <trkpt lat="43.92913" lon="5.22192">
        <ele>308</ele>
        <time>2010-10-22T06:28:58Z</time>
      </trkpt>
      <trkpt lat="43.92926" lon="5.22183">
        <ele>310</ele>
        <time>2010-10-22T06:28:58Z</time>
      </trkpt>
      <trkpt lat="43.9295" lon="5.22189">
        <ele>313</ele>
        <time>2010-10-22T06:28:58Z</time>
      </trkpt>
      <trkpt lat="43.92977" lon="5.22218">
        <ele>312</ele>
        <time>2010-10-22T06:28:58Z</time>
      </trkpt>
      <trkpt lat="43.92995" lon="5.22231">
        <ele>314</ele>
        <time>2010-10-22T06:28:58Z</time>
      </trkpt>
      <trkpt lat="43.92992" lon="5.22237">
        <ele>314</ele>
        <time>2010-10-22T06:28:58Z</time>
      </trkpt>
      <trkpt lat="43.93022" lon="5.22249">
        <ele>316</ele>
        <time>2010-10-22T06:28:58Z</time>
      </trkpt>
      <trkpt lat="43.93035" lon="5.22251">
        <ele>317</ele>
        <time>2010-10-22T06:28:58Z</time>
      </trkpt>
      <trkpt lat="43.93041" lon="5.22249">
        <ele>320</ele>
        <time>2010-10-22T06:28:58Z</time>
      </trkpt>
      <trkpt lat="43.93072" lon="5.22259">
        <ele>322</ele>
        <time>2010-10-22T06:28:58Z</time>
      </trkpt>
      <trkpt lat="43.93091" lon="5.22259">
        <ele>323</ele>
        <time>2010-10-22T06:28:58Z</time>
      </trkpt>
      <trkpt lat="43.93109" lon="5.22247">
        <ele>325</ele>
        <time>2010-10-22T06:28:58Z</time>
      </trkpt>
      <trkpt lat="43.93115" lon="5.22238">
        <ele>326</ele>
        <time>2010-10-22T06:28:58Z</time>
      </trkpt>
      <trkpt lat="43.93113" lon="5.22225">
        <ele>326</ele>
        <time>2010-10-22T06:28:58Z</time>
      </trkpt>
      <trkpt lat="43.93117" lon="5.2221">
        <ele>323</ele>
        <time>2010-10-22T06:28:58Z</time>
      </trkpt>
      <trkpt lat="43.93105" lon="5.22205">
        <ele>326</ele>
        <time>2010-10-22T06:28:58Z</time>
      </trkpt>
      <trkpt lat="43.93094" lon="5.22187">
        <ele>326</ele>
        <time>2010-10-22T06:28:58Z</time>
      </trkpt>
      <trkpt lat="43.93093" lon="5.22168">
        <ele>327</ele>
        <time>2010-10-22T06:28:58Z</time>
      </trkpt>
      <trkpt lat="43.93114" lon="5.22167">
        <ele>326</ele>
        <time>2010-10-22T06:28:58Z</time>
      </trkpt>
      <trkpt lat="43.931" lon="5.22104">
        <ele>329</ele>
        <time>2010-10-22T06:28:58Z</time>
      </trkpt>
      <trkpt lat="43.93093" lon="5.22091">
        <ele>330</ele>
        <time>2010-10-22T06:28:58Z</time>
      </trkpt>
      <trkpt lat="43.93117" lon="5.22059">
        <ele>333</ele>
        <time>2010-10-22T06:28:58Z</time>
      </trkpt>
      <trkpt lat="43.93118" lon="5.22048">
        <ele>334</ele>
        <time>2010-10-22T06:28:58Z</time>
      </trkpt>
      <trkpt lat="43.93165" lon="5.22059">
        <ele>336</ele>
        <time>2010-10-22T06:28:58Z</time>
      </trkpt>
      <trkpt lat="43.9318" lon="5.22068">
        <ele>337</ele>
        <time>2010-10-22T06:28:58Z</time>
      </trkpt>
      <trkpt lat="43.93184" lon="5.22075">
        <ele>337</ele>
        <time>2010-10-22T06:28:58Z</time>
      </trkpt>
      <trkpt lat="43.93168" lon="5.22073">
        <ele>336</ele>
        <time>2010-10-22T06:28:58Z</time>
      </trkpt>
      <trkpt lat="43.93172" lon="5.22073">
        <ele>338</ele>
        <time>2010-10-22T06:28:58Z</time>
      </trkpt>
      <trkpt lat="43.93175" lon="5.22095">
        <ele>338</ele>
        <time>2010-10-22T06:28:58Z</time>
      </trkpt>
      <trkpt lat="43.93186" lon="5.22114">
        <ele>339</ele>
        <time>2010-10-22T06:28:58Z</time>
      </trkpt>
      <trkpt lat="43.93184" lon="5.22135">
        <ele>339</ele>
        <time>2010-10-22T06:28:58Z</time>
      </trkpt>
      <trkpt lat="43.93193" lon="5.22128">
        <ele>342</ele>
        <time>2010-10-22T06:28:58Z</time>
      </trkpt>
      <trkpt lat="43.93201" lon="5.22146">
        <ele>346</ele>
        <time>2010-10-22T06:28:58Z</time>
      </trkpt>
      <trkpt lat="43.93208" lon="5.22144">
        <ele>346</ele>
        <time>2010-10-22T06:28:58Z</time>
      </trkpt>
      <trkpt lat="43.93218" lon="5.22156">
        <ele>347</ele>
        <time>2010-10-22T06:28:58Z</time>
      </trkpt>
      <trkpt lat="43.93222" lon="5.22151">
        <ele>347</ele>
        <time>2010-10-22T06:28:58Z</time>
      </trkpt>
      <trkpt lat="43.93226" lon="5.2212">
        <ele>347</ele>
        <time>2010-10-22T06:28:58Z</time>
      </trkpt>
      <trkpt lat="43.93236" lon="5.22111">
        <ele>347</ele>
        <time>2010-10-22T06:28:58Z</time>
      </trkpt>
      <trkpt lat="43.93255" lon="5.2211">
        <ele>347</ele>
        <time>2010-10-22T06:28:58Z</time>
      </trkpt>
      <trkpt lat="43.93276" lon="5.22097">
        <ele>348</ele>
        <time>2010-10-22T06:28:58Z</time>
      </trkpt>
      <trkpt lat="43.93305" lon="5.22108">
        <ele>349</ele>
        <time>2010-10-22T06:28:58Z</time>
      </trkpt>
      <trkpt lat="43.93311" lon="5.22102">
        <ele>351</ele>
        <time>2010-10-22T06:28:58Z</time>
      </trkpt>
      <trkpt lat="43.93329" lon="5.22114">
        <ele>355</ele>
        <time>2010-10-22T06:28:58Z</time>
      </trkpt>
      <trkpt lat="43.93338" lon="5.22144">
        <ele>353</ele>
        <time>2010-10-22T06:28:58Z</time>
      </trkpt>
      <trkpt lat="43.93332" lon="5.22154">
        <ele>355</ele>
        <time>2010-10-22T06:28:58Z</time>
      </trkpt>
      <trkpt lat="43.93333" lon="5.22152">
        <ele>358</ele>
        <time>2010-10-22T06:28:58Z</time>
      </trkpt>
      <trkpt lat="43.93333" lon="5.22151">
        <ele>353</ele>
        <time>2010-10-22T06:28:58Z</time>
      </trkpt>
      <trkpt lat="43.93332" lon="5.22141">
        <ele>353</ele>
        <time>2010-10-22T06:28:58Z</time>
      </trkpt>
      <trkpt lat="43.9334" lon="5.22137">
        <ele>356</ele>
        <time>2010-10-22T06:28:58Z</time>
      </trkpt>
      <trkpt lat="43.93354" lon="5.22161">
        <ele>362</ele>
        <time>2010-10-22T06:28:58Z</time>
      </trkpt>
      <trkpt lat="43.93371" lon="5.2216">
        <ele>360</ele>
        <time>2010-10-22T06:28:58Z</time>
      </trkpt>
      <trkpt lat="43.9339" lon="5.22154">
        <ele>364</ele>
        <time>2010-10-22T06:28:58Z</time>
      </trkpt>
      <trkpt lat="43.93391" lon="5.22152">
        <ele>360</ele>
        <time>2010-10-22T06:28:58Z</time>
      </trkpt>
      <trkpt lat="43.93391" lon="5.22152">
        <ele>365</ele>
        <time>2010-10-22T06:28:58Z</time>
      </trkpt>
      <trkpt lat="43.93399" lon="5.22127">
        <ele>371</ele>
        <time>2010-10-22T06:28:58Z</time>
      </trkpt>
      <trkpt lat="43.93397" lon="5.22119">
        <ele>372</ele>
        <time>2010-10-22T06:28:58Z</time>
      </trkpt>
      <trkpt lat="43.93391" lon="5.22116">
        <ele>374</ele>
        <time>2010-10-22T06:28:58Z</time>
      </trkpt>
      <trkpt lat="43.93399" lon="5.2211">
        <ele>373</ele>
        <time>2010-10-22T06:28:58Z</time>
      </trkpt>
      <trkpt lat="43.934" lon="5.22116">
        <ele>373</ele>
        <time>2010-10-22T06:28:58Z</time>
      </trkpt>
      <trkpt lat="43.93397" lon="5.22114">
        <ele>373</ele>
        <time>2010-10-22T06:28:58Z</time>
      </trkpt>
      <trkpt lat="43.93395" lon="5.22118">
        <ele>367</ele>
        <time>2010-10-22T06:28:58Z</time>
      </trkpt>
      <trkpt lat="43.93395" lon="5.22118">
        <ele>372</ele>
        <time>2010-10-22T06:28:58Z</time>
      </trkpt>
      <trkpt lat="43.93406" lon="5.22137">
        <ele>363</ele>
        <time>2010-10-22T06:28:58Z</time>
      </trkpt>
      <trkpt lat="43.93435" lon="5.22123">
        <ele>363</ele>
        <time>2010-10-22T06:28:58Z</time>
      </trkpt>
      <trkpt lat="43.93446" lon="5.22129">
        <ele>356</ele>
        <time>2010-10-22T06:28:58Z</time>
      </trkpt>
      <trkpt lat="43.93446" lon="5.22129">
        <ele>363</ele>
        <time>2010-10-22T06:28:58Z</time>
      </trkpt>
      <trkpt lat="43.93457" lon="5.2212">
        <ele>364</ele>
        <time>2010-10-22T06:28:58Z</time>
      </trkpt>
      <trkpt lat="43.93477" lon="5.22123">
        <ele>364</ele>
        <time>2010-10-22T06:28:58Z</time>
      </trkpt>
      <trkpt lat="43.93491" lon="5.22119">
        <ele>363</ele>
        <time>2010-10-22T06:28:58Z</time>
      </trkpt>
      <trkpt lat="43.93534" lon="5.22119">
        <ele>365</ele>
        <time>2010-10-22T06:28:58Z</time>
      </trkpt>
      <trkpt lat="43.93586" lon="5.22086">
        <ele>367</ele>
        <time>2010-10-22T06:28:58Z</time>
      </trkpt>
      <trkpt lat="43.93633" lon="5.22097">
        <ele>367</ele>
        <time>2010-10-22T06:28:58Z</time>
      </trkpt>
      <trkpt lat="43.93661" lon="5.22111">
        <ele>366</ele>
        <time>2010-10-22T06:28:58Z</time>
      </trkpt>
      <trkpt lat="43.93673" lon="5.22122">
        <ele>368</ele>
        <time>2010-10-22T06:28:58Z</time>
      </trkpt>
      <trkpt lat="43.93714" lon="5.22133">
        <ele>370</ele>
        <time>2010-10-22T06:28:58Z</time>
      </trkpt>
      <trkpt lat="43.93731" lon="5.22143">
        <ele>370</ele>
        <time>2010-10-22T06:28:58Z</time>
      </trkpt>
      <trkpt lat="43.93744" lon="5.22142">
        <ele>370</ele>
        <time>2010-10-22T06:28:58Z</time>
      </trkpt>
      <trkpt lat="43.93762" lon="5.2213">
        <ele>370</ele>
        <time>2010-10-22T06:28:58Z</time>
      </trkpt>
      <trkpt lat="43.93775" lon="5.22111">
        <ele>371</ele>
        <time>2010-10-22T06:28:58Z</time>
      </trkpt>
      <trkpt lat="43.93825" lon="5.22128">
        <ele>373</ele>
        <time>2010-10-22T06:28:58Z</time>
      </trkpt>
      <trkpt lat="43.93841" lon="5.22146">
        <ele>371</ele>
        <time>2010-10-22T06:28:58Z</time>
      </trkpt>
      <trkpt lat="43.93846" lon="5.22144">
        <ele>372</ele>
        <time>2010-10-22T06:28:58Z</time>
      </trkpt>
      <trkpt lat="43.93842" lon="5.22137">
        <ele>375</ele>
        <time>2010-10-22T06:28:58Z</time>
      </trkpt>
      <trkpt lat="43.93843" lon="5.22126">
        <ele>376</ele>
        <time>2010-10-22T06:28:58Z</time>
      </trkpt>
      <trkpt lat="43.93863" lon="5.2214">
        <ele>376</ele>
        <time>2010-10-22T06:28:58Z</time>
      </trkpt>
      <trkpt lat="43.93867" lon="5.22151">
        <ele>376</ele>
        <time>2010-10-22T06:28:58Z</time>
      </trkpt>
      <trkpt lat="43.93875" lon="5.22154">
        <ele>377</ele>
        <time>2010-10-22T06:28:58Z</time>
      </trkpt>
      <trkpt lat="43.93878" lon="5.22158">
        <ele>373</ele>
        <time>2010-10-22T06:28:58Z</time>
      </trkpt>
      <trkpt lat="43.93878" lon="5.22158">
        <ele>384</ele>
        <time>2010-10-22T06:28:58Z</time>
      </trkpt>
      <trkpt lat="43.93878" lon="5.22159">
        <ele>378</ele>
        <time>2010-10-22T06:28:58Z</time>
      </trkpt>
      <trkpt lat="43.93888" lon="5.22176">
        <ele>376</ele>
        <time>2010-10-22T06:28:58Z</time>
      </trkpt>
      <trkpt lat="43.93893" lon="5.22167">
        <ele>379</ele>
        <time>2010-10-22T06:28:58Z</time>
      </trkpt>
      <trkpt lat="43.93886" lon="5.2216">
        <ele>379</ele>
        <time>2010-10-22T06:28:58Z</time>
      </trkpt>
      <trkpt lat="43.93873" lon="5.22132">
        <ele>384</ele>
        <time>2010-10-22T06:28:58Z</time>
      </trkpt>
      <trkpt lat="43.93874" lon="5.22118">
        <ele>387</ele>
        <time>2010-10-22T06:28:58Z</time>
      </trkpt>
      <trkpt lat="43.93882" lon="5.22117">
        <ele>392</ele>
        <time>2010-10-22T06:28:58Z</time>
      </trkpt>
      <trkpt lat="43.93881" lon="5.22117">
        <ele>397</ele>
        <time>2010-10-22T06:28:58Z</time>
      </trkpt>
      <trkpt lat="43.93902" lon="5.22126">
        <ele>401</ele>
        <time>2010-10-22T06:28:58Z</time>
      </trkpt>
      <trkpt lat="43.93907" lon="5.22123">
        <ele>405</ele>
        <time>2010-10-22T06:28:58Z</time>
      </trkpt>
      <trkpt lat="43.93938" lon="5.2212">
        <ele>405</ele>
        <time>2010-10-22T06:28:58Z</time>
      </trkpt>
      <trkpt lat="43.93956" lon="5.22126">
        <ele>403</ele>
        <time>2010-10-22T06:28:58Z</time>
      </trkpt>
      <trkpt lat="43.93996" lon="5.22131">
        <ele>401</ele>
        <time>2010-10-22T06:28:58Z</time>
      </trkpt>
      <trkpt lat="43.94018" lon="5.22148">
        <ele>397</ele>
        <time>2010-10-22T06:28:58Z</time>
      </trkpt>
      <trkpt lat="43.94026" lon="5.22172">
        <ele>392</ele>
        <time>2010-10-22T06:28:58Z</time>
      </trkpt>
      <trkpt lat="43.94024" lon="5.22198">
        <ele>390</ele>
        <time>2010-10-22T06:28:58Z</time>
      </trkpt>
      <trkpt lat="43.94019" lon="5.22201">
        <ele>390</ele>
        <time>2010-10-22T06:28:58Z</time>
      </trkpt>
      <trkpt lat="43.94013" lon="5.22197">
        <ele>391</ele>
        <time>2010-10-22T06:28:58Z</time>
      </trkpt>
      <trkpt lat="43.94022" lon="5.22215">
        <ele>391</ele>
        <time>2010-10-22T06:28:58Z</time>
      </trkpt>
      <trkpt lat="43.94022" lon="5.22264">
        <ele>389</ele>
        <time>2010-10-22T06:28:58Z</time>
      </trkpt>
      <trkpt lat="43.9404" lon="5.2231">
        <ele>391</ele>
        <time>2010-10-22T06:28:58Z</time>
      </trkpt>
      <trkpt lat="43.94053" lon="5.22322">
        <ele>391</ele>
        <time>2010-10-22T06:28:58Z</time>
      </trkpt>
      <trkpt lat="43.94083" lon="5.22337">
        <ele>390</ele>
        <time>2010-10-22T06:28:58Z</time>
      </trkpt>
      <trkpt lat="43.9411" lon="5.22334">
        <ele>391</ele>
        <time>2010-10-22T06:28:58Z</time>
      </trkpt>
      <trkpt lat="43.94112" lon="5.22328">
        <ele>391</ele>
        <time>2010-10-22T06:28:58Z</time>
      </trkpt>
      <trkpt lat="43.94148" lon="5.22305">
        <ele>391</ele>
        <time>2010-10-22T06:28:58Z</time>
      </trkpt>
      <trkpt lat="43.9417" lon="5.22304">
        <ele>391</ele>
        <time>2010-10-22T06:28:58Z</time>
      </trkpt>
      <trkpt lat="43.94178" lon="5.22298">
        <ele>392</ele>
        <time>2010-10-22T06:28:58Z</time>
      </trkpt>
      <trkpt lat="43.94179" lon="5.22286">
        <ele>393</ele>
        <time>2010-10-22T06:28:58Z</time>
      </trkpt>
      <trkpt lat="43.94201" lon="5.22261">
        <ele>397</ele>
        <time>2010-10-22T06:28:58Z</time>
      </trkpt>
      <trkpt lat="43.94208" lon="5.22244">
        <ele>397</ele>
        <time>2010-10-22T06:28:58Z</time>
      </trkpt>
      <trkpt lat="43.94228" lon="5.22249">
        <ele>397</ele>
        <time>2010-10-22T06:28:58Z</time>
      </trkpt>
      <trkpt lat="43.94266" lon="5.22304">
        <ele>395</ele>
        <time>2010-10-22T06:28:58Z</time>
      </trkpt>
      <trkpt lat="43.94262" lon="5.22316">
        <ele>396</ele>
        <time>2010-10-22T06:28:58Z</time>
      </trkpt>
      <trkpt lat="43.94271" lon="5.22357">
        <ele>395</ele>
        <time>2010-10-22T06:28:58Z</time>
      </trkpt>
      <trkpt lat="43.94253" lon="5.22367">
        <ele>393</ele>
        <time>2010-10-22T06:28:58Z</time>
      </trkpt>
      <trkpt lat="43.94266" lon="5.22386">
        <ele>394</ele>
        <time>2010-10-22T06:28:58Z</time>
      </trkpt>
      <trkpt lat="43.94277" lon="5.22414">
        <ele>394</ele>
        <time>2010-10-22T06:28:58Z</time>
      </trkpt>
      <trkpt lat="43.94301" lon="5.22428">
        <ele>395</ele>
        <time>2010-10-22T06:28:58Z</time>
      </trkpt>
      <trkpt lat="43.94334" lon="5.22434">
        <ele>394</ele>
        <time>2010-10-22T06:28:58Z</time>
      </trkpt>
      <trkpt lat="43.94377" lon="5.22414">
        <ele>395</ele>
        <time>2010-10-22T06:28:58Z</time>
      </trkpt>
      <trkpt lat="43.9441" lon="5.22424">
        <ele>395</ele>
        <time>2010-10-22T06:28:58Z</time>
      </trkpt>
      <trkpt lat="43.94418" lon="5.22418">
        <ele>394</ele>
        <time>2010-10-22T06:28:58Z</time>
      </trkpt>
      <trkpt lat="43.94442" lon="5.22432">
        <ele>394</ele>
        <time>2010-10-22T06:28:58Z</time>
      </trkpt>
      <trkpt lat="43.9445" lon="5.22455">
        <ele>395</ele>
        <time>2010-10-22T06:28:58Z</time>
      </trkpt>
      <trkpt lat="43.94467" lon="5.2246">
        <ele>395</ele>
        <time>2010-10-22T06:28:58Z</time>
      </trkpt>
      <trkpt lat="43.94492" lon="5.22494">
        <ele>399</ele>
        <time>2010-10-22T06:28:58Z</time>
      </trkpt>
      <trkpt lat="43.94501" lon="5.22492">
        <ele>398</ele>
        <time>2010-10-22T06:28:58Z</time>
      </trkpt>
      <trkpt lat="43.94503" lon="5.22485">
        <ele>398</ele>
        <time>2010-10-22T06:28:58Z</time>
      </trkpt>
      <trkpt lat="43.94499" lon="5.22505">
        <ele>401</ele>
        <time>2010-10-22T06:28:58Z</time>
      </trkpt>
      <trkpt lat="43.94487" lon="5.22496">
        <ele>403</ele>
        <time>2010-10-22T06:28:58Z</time>
      </trkpt>
      <trkpt lat="43.94488" lon="5.22517">
        <ele>406</ele>
        <time>2010-10-22T06:28:58Z</time>
      </trkpt>
      <trkpt lat="43.94503" lon="5.22566">
        <ele>409</ele>
        <time>2010-10-22T06:28:58Z</time>
      </trkpt>
      <trkpt lat="43.94537" lon="5.22616">
        <ele>412</ele>
        <time>2010-10-22T06:28:58Z</time>
      </trkpt>
      <trkpt lat="43.94545" lon="5.22645">
        <ele>411</ele>
        <time>2010-10-22T06:28:58Z</time>
      </trkpt>
      <trkpt lat="43.94568" lon="5.22684">
        <ele>408</ele>
        <time>2010-10-22T06:28:58Z</time>
      </trkpt>
      <trkpt lat="43.94587" lon="5.22729">
        <ele>409</ele>
        <time>2010-10-22T06:28:58Z</time>
      </trkpt>
      <trkpt lat="43.94599" lon="5.2274">
        <ele>411</ele>
        <time>2010-10-22T06:28:58Z</time>
      </trkpt>
      <trkpt lat="43.946" lon="5.22745">
        <ele>410</ele>
        <time>2010-10-22T06:28:58Z</time>
      </trkpt>
      <trkpt lat="43.94616" lon="5.22753">
        <ele>409</ele>
        <time>2010-10-22T06:28:58Z</time>
      </trkpt>
      <trkpt lat="43.94636" lon="5.22784">
        <ele>410</ele>
        <time>2010-10-22T06:28:58Z</time>
      </trkpt>
      <trkpt lat="43.94652" lon="5.228">
        <ele>409</ele>
        <time>2010-10-22T06:28:58Z</time>
      </trkpt>
      <trkpt lat="43.94697" lon="5.22874">
        <ele>410</ele>
        <time>2010-10-22T06:28:58Z</time>
      </trkpt>
      <trkpt lat="43.94707" lon="5.22897">
        <ele>407</ele>
        <time>2010-10-22T06:28:58Z</time>
      </trkpt>
      <trkpt lat="43.9471" lon="5.22906">
        <ele>411</ele>
        <time>2010-10-22T06:28:58Z</time>
      </trkpt>
      <trkpt lat="43.94718" lon="5.2293">
        <ele>409</ele>
        <time>2010-10-22T06:28:58Z</time>
      </trkpt>
      <trkpt lat="43.94729" lon="5.22955">
        <ele>413</ele>
        <time>2010-10-22T06:28:58Z</time>
      </trkpt>
      <trkpt lat="43.94758" lon="5.22995">
        <ele>412</ele>
        <time>2010-10-22T06:28:58Z</time>
      </trkpt>
      <trkpt lat="43.94777" lon="5.23031">
        <ele>413</ele>
        <time>2010-10-22T06:28:58Z</time>
      </trkpt>
      <trkpt lat="43.94797" lon="5.2305">
        <ele>413</ele>
        <time>2010-10-22T06:28:58Z</time>
      </trkpt>
      <trkpt lat="43.94823" lon="5.23055">
        <ele>413</ele>
        <time>2010-10-22T06:28:58Z</time>
      </trkpt>
      <trkpt lat="43.94828" lon="5.23065">
        <ele>414</ele>
        <time>2010-10-22T06:28:58Z</time>
      </trkpt>
      <trkpt lat="43.94836" lon="5.23059">
        <ele>413</ele>
        <time>2010-10-22T06:28:58Z</time>
      </trkpt>
      <trkpt lat="43.94851" lon="5.23066">
        <ele>414</ele>
        <time>2010-10-22T06:28:58Z</time>
      </trkpt>
      <trkpt lat="43.94883" lon="5.23097">
        <ele>417</ele>
        <time>2010-10-22T06:28:58Z</time>
      </trkpt>
      <trkpt lat="43.94891" lon="5.23132">
        <ele>418</ele>
        <time>2010-10-22T06:28:58Z</time>
      </trkpt>
      <trkpt lat="43.94887" lon="5.23201">
        <ele>419</ele>
        <time>2010-10-22T06:28:58Z</time>
      </trkpt>
      <trkpt lat="43.94889" lon="5.23283">
        <ele>420</ele>
        <time>2010-10-22T06:28:58Z</time>
      </trkpt>
      <trkpt lat="43.94884" lon="5.2331">
        <ele>420</ele>
        <time>2010-10-22T06:28:58Z</time>
      </trkpt>
      <trkpt lat="43.94888" lon="5.23337">
        <ele>419</ele>
        <time>2010-10-22T06:28:58Z</time>
      </trkpt>
      <trkpt lat="43.94911" lon="5.23421">
        <ele>425</ele>
        <time>2010-10-22T06:28:58Z</time>
      </trkpt>
      <trkpt lat="43.94941" lon="5.23564">
        <ele>432</ele>
        <time>2010-10-22T06:28:58Z</time>
      </trkpt>
      <trkpt lat="43.94986" lon="5.23692">
        <ele>436</ele>
        <time>2010-10-22T06:28:58Z</time>
      </trkpt>
      <trkpt lat="43.95027" lon="5.23839">
        <ele>444</ele>
        <time>2010-10-22T06:28:58Z</time>
      </trkpt>
      <trkpt lat="43.95047" lon="5.23875">
        <ele>447</ele>
        <time>2010-10-22T06:28:58Z</time>
      </trkpt>
      <trkpt lat="43.95058" lon="5.23883">
        <ele>451</ele>
        <time>2010-10-22T06:28:58Z</time>
      </trkpt>
      <trkpt lat="43.95059" lon="5.23884">
        <ele>447</ele>
        <time>2010-10-22T06:28:58Z</time>
      </trkpt>
      <trkpt lat="43.95059" lon="5.23885">
        <ele>451</ele>
        <time>2010-10-22T06:28:58Z</time>
      </trkpt>
      <trkpt lat="43.95087" lon="5.23894">
        <ele>451</ele>
        <time>2010-10-22T06:28:58Z</time>
      </trkpt>
      <trkpt lat="43.95128" lon="5.23925">
        <ele>456</ele>
        <time>2010-10-22T06:28:58Z</time>
      </trkpt>
      <trkpt lat="43.95174" lon="5.23967">
        <ele>462</ele>
        <time>2010-10-22T06:28:58Z</time>
      </trkpt>
      <trkpt lat="43.95194" lon="5.23991">
        <ele>465</ele>
        <time>2010-10-22T06:28:58Z</time>
      </trkpt>
      <trkpt lat="43.95195" lon="5.24004">
        <ele>466</ele>
        <time>2010-10-22T06:28:58Z</time>
      </trkpt>
      <trkpt lat="43.95182" lon="5.2402">
        <ele>468</ele>
        <time>2010-10-22T06:28:58Z</time>
      </trkpt>
      <trkpt lat="43.95129" lon="5.24013">
        <ele>472</ele>
        <time>2010-10-22T06:28:58Z</time>
      </trkpt>
      <trkpt lat="43.95113" lon="5.24014">
        <ele>476</ele>
        <time>2010-10-22T06:28:58Z</time>
      </trkpt>
      <trkpt lat="43.95103" lon="5.24025">
        <ele>477</ele>
        <time>2010-10-22T06:28:58Z</time>
      </trkpt>
      <trkpt lat="43.95099" lon="5.24039">
        <ele>478</ele>
        <time>2010-10-22T06:28:58Z</time>
      </trkpt>
      <trkpt lat="43.95097" lon="5.24081">
        <ele>479</ele>
        <time>2010-10-22T06:28:58Z</time>
      </trkpt>
      <trkpt lat="43.95118" lon="5.24144">
        <ele>484</ele>
        <time>2010-10-22T06:28:58Z</time>
      </trkpt>
      <trkpt lat="43.95142" lon="5.24131">
        <ele>486</ele>
        <time>2010-10-22T06:28:58Z</time>
      </trkpt>
      <trkpt lat="43.95151" lon="5.24133">
        <ele>486</ele>
        <time>2010-10-22T06:28:58Z</time>
      </trkpt>
      <trkpt lat="43.95139" lon="5.24145">
        <ele>488</ele>
        <time>2010-10-22T06:28:58Z</time>
      </trkpt>
      <trkpt lat="43.95133" lon="5.24163">
        <ele>488</ele>
        <time>2010-10-22T06:28:58Z</time>
      </trkpt>
      <trkpt lat="43.95128" lon="5.24193">
        <ele>488</ele>
        <time>2010-10-22T06:28:58Z</time>
      </trkpt>
      <trkpt lat="43.9513" lon="5.24216">
        <ele>488</ele>
        <time>2010-10-22T06:28:58Z</time>
      </trkpt>
      <trkpt lat="43.95137" lon="5.24215">
        <ele>488</ele>
        <time>2010-10-22T06:28:58Z</time>
      </trkpt>
      <trkpt lat="43.9513" lon="5.2422">
        <ele>488</ele>
        <time>2010-10-22T06:28:58Z</time>
      </trkpt>
      <trkpt lat="43.95119" lon="5.24256">
        <ele>488</ele>
        <time>2010-10-22T06:28:58Z</time>
      </trkpt>
      <trkpt lat="43.95118" lon="5.24253">
        <ele>482</ele>
        <time>2010-10-22T06:28:58Z</time>
      </trkpt>
      <trkpt lat="43.95118" lon="5.24253">
        <ele>488</ele>
        <time>2010-10-22T06:28:58Z</time>
      </trkpt>
      <trkpt lat="43.95119" lon="5.24257">
        <ele>485</ele>
        <time>2010-10-22T06:28:58Z</time>
      </trkpt>
      <trkpt lat="43.95113" lon="5.24306">
        <ele>488</ele>
        <time>2010-10-22T06:28:58Z</time>
      </trkpt>
      <trkpt lat="43.95097" lon="5.2433">
        <ele>488</ele>
        <time>2010-10-22T06:28:58Z</time>
      </trkpt>
      <trkpt lat="43.95074" lon="5.24317">
        <ele>488</ele>
        <time>2010-10-22T06:28:58Z</time>
      </trkpt>
      <trkpt lat="43.95033" lon="5.24282">
        <ele>491</ele>
        <time>2010-10-22T06:28:58Z</time>
      </trkpt>
      <trkpt lat="43.95003" lon="5.24269">
        <ele>491</ele>
        <time>2010-10-22T06:28:58Z</time>
      </trkpt>
      <trkpt lat="43.94993" lon="5.24277">
        <ele>492</ele>
        <time>2010-10-22T06:28:58Z</time>
      </trkpt>
      <trkpt lat="43.94999" lon="5.24268">
        <ele>491</ele>
        <time>2010-10-22T06:28:58Z</time>
      </trkpt>
      <trkpt lat="43.94998" lon="5.24256">
        <ele>491</ele>
        <time>2010-10-22T06:28:58Z</time>
      </trkpt>
      <trkpt lat="43.94927" lon="5.2422">
        <ele>493</ele>
        <time>2010-10-22T06:28:58Z</time>
      </trkpt>
    </trkseg>
  </trk>
</gpx>